• In Belarus
  • List of Countries
  • For 7 days
  • Water Temperature
  • Satellite Maps
  • Weather Map
  • Weather Widgets
  • user-avatar
    Login

    Hourly Weather Parakou

    Today, 18 January, Friday

    Time Temperature Precipitation Wind Pressure Humidity
    00:00 +30°C° 0 mm 2 mps 727 mmHg 12%
    01:00 +29°C° 0 mm 2 mps 727 mmHg 14%
    02:00 +29°C° 0 mm 2 mps 727 mmHg 17%
    03:00 +28°C° 0 mm 2 mps 727 mmHg 20%
    04:00 +27°C° 0 mm 2 mps 727 mmHg 37%
    05:00 +27°C° 0 mm 1 mps 727 mmHg 53%
    06:00 +26°C° 0 mm 1 mps 727 mmHg 70%
    07:00 +28°C° 0 mm 1 mps 728 mmHg 66%
    08:00 +29°C° 0 mm 2 mps 728 mmHg 63%
    09:00 +31°C° 0 mm 2 mps 729 mmHg 59%
    10:00 +34°C° 0 mm 2 mps 728 mmHg 48%
    11:00 +37°C° 0 mm 2 mps 728 mmHg 36%
    12:00 +39°C° 0 mm 2 mps 728 mmHg 25%
    13:00 +39°C° 0 mm 2 mps 727 mmHg 23%
    14:00 +40°C° 0 mm 2 mps 726 mmHg 21%
    15:00 +40°C° 0 mm 2 mps 726 mmHg 18%
    16:00 +39°C° 0 mm 1 mps 726 mmHg 20%
    17:00 +37°C° 0 mm 1 mps 726 mmHg 21%
    18:00 +36°C° 0 mm 1 mps 726 mmHg 22%
    19:00 +35°C° 0 mm 1 mps 726 mmHg 24%
    20:00 +34°C° 0 mm 1 mps 727 mmHg 26%
    21:00 +33°C° 0 mm 1 mps 727 mmHg 28%
    22:00 +33°C° 0 mm 1 mps 727 mmHg 31%
    23:00 +32°C° 0 mm 2 mps 727 mmHg 33%

    Tomorrow, 19 January, Saturday

    Time Temperature Precipitation Wind Pressure Humidity
    00:00 +31°C° 0 mm 2 mps 727 mmHg 36%
    01:00 +31°C° 0 mm 3 mps 727 mmHg 46%
    02:00 +30°C° 0 mm 3 mps 727 mmHg 57%
    03:00 +29°C° 0 mm 3 mps 727 mmHg 67%
    04:00 +28°C° 0 mm 3 mps 727 mmHg 69%
    05:00 +28°C° 0 mm 3 mps 727 mmHg 70%
    06:00 +28°C° 0 mm 2 mps 727 mmHg 72%
    07:00 +29°C° 0 mm 2 mps 728 mmHg 67%
    08:00 +30°C° 0 mm 3 mps 728 mmHg 62%
    09:00 +31°C° 0 mm 3 mps 729 mmHg 57%
    10:00 +34°C° 0 mm 2 mps 729 mmHg 49%
    11:00 +36°C° 0 mm 2 mps 728 mmHg 41%
    12:00 +38°C° 0 mm 2 mps 728 mmHg 33%
    13:00 +39°C° 0 mm 2 mps 727 mmHg 29%
    14:00 +40°C° 0 mm 1 mps 726 mmHg 25%
    15:00 +41°C° 0 mm 1 mps 725 mmHg 22%
    16:00 +40°C° 0 mm 1 mps 726 mmHg 23%
    17:00 +37°C° 0 mm 1 mps 726 mmHg 25%
    18:00 +36°C° 0 mm 1 mps 726 mmHg 26%
    19:00 +35°C° 0 mm 1 mps 727 mmHg 28%
    20:00 +36°C° 0 mm 2 mps 727 mmHg 29%
    21:00 +35°C° 0 mm 2 mps 728 mmHg 31%
    22:00 +35°C° 0 mm 2 mps 728 mmHg 33%
    23:00 +34°C° 0 mm 2 mps 728 mmHg 35%

    Day after tomorrow, 20 January, Sunday

    Time Temperature Precipitation Wind Pressure Humidity
    00:00 +34°C° 0 mm 3 mps 727 mmHg 38%
    01:00 +33°C° 0 mm 3 mps 727 mmHg 47%
    02:00 +31°C° 0 mm 3 mps 727 mmHg 56%
    03:00 +29°C° 0 mm 3 mps 727 mmHg 65%
    04:00 +29°C° 0.1 mm 3 mps 727 mmHg 65%
    05:00 +29°C° 0.1 mm 2 mps 727 mmHg 66%
    06:00 +28°C° 0.1 mm 2 mps 728 mmHg 67%
    07:00 +29°C° 0.5 mm 2 mps 728 mmHg 62%
    08:00 +31°C° 0.5 mm 3 mps 729 mmHg 56%
    09:00 +33°C° 0.5 mm 3 mps 730 mmHg 51%
    10:00 +35°C° 0 mm 3 mps 729 mmHg 44%
    11:00 +36°C° 0 mm 2 mps 729 mmHg 38%
    12:00 +38°C° 0 mm 2 mps 728 mmHg 31%
    13:00 +38°C° 0 mm 2 mps 727 mmHg 30%
    14:00 +38°C° 0 mm 2 mps 726 mmHg 29%
    15:00 +39°C° 0 mm 2 mps 726 mmHg 28%
    16:00 +38°C° 0 mm 2 mps 726 mmHg 29%
    17:00 +37°C° 0 mm 2 mps 726 mmHg 31%
    18:00 +36°C° 0 mm 1 mps 726 mmHg 32%
    19:00 +35°C° 0 mm 1 mps 727 mmHg 35%
    20:00 +35°C° 0 mm 2 mps 727 mmHg 37%
    21:00 +35°C° 0 mm 2 mps 728 mmHg 40%
    22:00 +34°C° 0.1 mm 2 mps 728 mmHg 43%
    23:00 +33°C° 0.1 mm 1 mps 728 mmHg 45%

    21 January, Monday

    Time Temperature Precipitation Wind Pressure Humidity
    00:00 +32°C° 0.1 mm 1 mps 728 mmHg 48%
    01:00 +31°C° 0.7 mm 2 mps 728 mmHg 52%
    02:00 +30°C° 0.7 mm 2 mps 727 mmHg 56%
    03:00 +29°C° 0.7 mm 2 mps 727 mmHg 60%
    04:00 +29°C° 0 mm 1 mps 727 mmHg 62%
    05:00 +28°C° 0 mm 1 mps 728 mmHg 64%
    06:00 +26°C° 0 mm 0 mps 728 mmHg 66%
    07:00 +30°C° 0 mm 1 mps 728 mmHg 59%
    08:00 +31°C° 0 mm 1 mps 729 mmHg 51%
    09:00 +34°C° 0 mm 2 mps 730 mmHg 43%
    10:00 +36°C° 0 mm 2 mps 729 mmHg 35%
    11:00 +37°C° 0 mm 2 mps 729 mmHg 26%
    12:00 +39°C° 0 mm 2 mps 728 mmHg 18%
    13:00 +40°C° 0 mm 2 mps 727 mmHg 16%
    14:00 +40°C° 0 mm 1 mps 726 mmHg 14%
    15:00 +41°C° 0 mm 1 mps 725 mmHg 13%
    16:00 +39°C° 0 mm 1 mps 726 mmHg 13%
    17:00 +37°C° 0 mm 1 mps 726 mmHg 14%
    18:00 +36°C° 0 mm 1 mps 726 mmHg 15%
    19:00 +35°C° 0 mm 1 mps 727 mmHg 15%
    20:00 +34°C° 0 mm 1 mps 727 mmHg 16%
    21:00 +33°C° 0 mm 1 mps 728 mmHg 16%
    22:00 +33°C° 0 mm 1 mps 727 mmHg 16%
    23:00 +32°C° 0 mm 1 mps 727 mmHg 17%

    22 January, Tuesday

    Time Temperature Precipitation Wind Pressure Humidity
    00:00 +31°C° 0 mm 1 mps 727 mmHg 17%
    01:00 +30°C° 0 mm 1 mps 727 mmHg 22%
    02:00 +30°C° 0 mm 1 mps 726 mmHg 27%
    03:00 +29°C° 0 mm 1 mps 726 mmHg 32%
    04:00 +26°C° 0 mm 0 mps 727 mmHg 36%
    05:00 +26°C° 0 mm 0 mps 727 mmHg 41%
    06:00 +26°C° 0 mm 0 mps 727 mmHg 45%
    07:00 +28°C° 0 mm 0 mps 728 mmHg 40%
    08:00 +31°C° 0 mm 1 mps 729 mmHg 34%
    09:00 +33°C° 0 mm 1 mps 729 mmHg 29%
    10:00 +35°C° 0 mm 1 mps 729 mmHg 22%
    11:00 +38°C° 0 mm 2 mps 728 mmHg 16%
    12:00 +39°C° 0 mm 2 mps 728 mmHg 9%
    13:00 +40°C° 0 mm 2 mps 727 mmHg 8%
    14:00 +40°C° 0 mm 2 mps 726 mmHg 8%
    15:00 +41°C° 0 mm 2 mps 725 mmHg 7%
    16:00 +39°C° 0 mm 2 mps 725 mmHg 8%
    17:00 +37°C° 0 mm 1 mps 725 mmHg 8%
    18:00 +36°C° 0 mm 1 mps 726 mmHg 9%
    19:00 +35°C° 0 mm 1 mps 726 mmHg 9%
    20:00 +34°C° 0 mm 1 mps 726 mmHg 10%
    21:00 +33°C° 0 mm 1 mps 727 mmHg 10%
    22:00 +32°C° 0 mm 1 mps 727 mmHg 11%
    23:00 +31°C° 0 mm 1 mps 727 mmHg 11%

    23 January, Wednesday

    Time Temperature Precipitation Wind Pressure Humidity
    00:00 +31°C° 0 mm 1 mps 726 mmHg 12%
    01:00 +30°C° 0 mm 1 mps 726 mmHg 12%
    02:00 +29°C° 0 mm 1 mps 726 mmHg 13%
    03:00 +26°C° 0 mm 0 mps 726 mmHg 13%
    04:00 +25°C° 0 mm 0 mps 726 mmHg 16%
    05:00 +25°C° 0 mm 0 mps 726 mmHg 18%
    06:00 +24°C° 0 mm 0 mps 727 mmHg 21%
    07:00 +27°C° 0 mm 0 mps 727 mmHg 21%
    08:00 +29°C° 0 mm 0 mps 728 mmHg 21%
    09:00 +31°C° 0 mm 0 mps 729 mmHg 21%
    10:00 +35°C° 0 mm 1 mps 728 mmHg 17%
    11:00 +37°C° 0 mm 1 mps 728 mmHg 13%
    12:00 +40°C° 0 mm 1 mps 727 mmHg 9%
    13:00 +40°C° 0 mm 1 mps 726 mmHg 8%
    14:00 +41°C° 0 mm 1 mps 726 mmHg 7%
    15:00 +41°C° 0 mm 1 mps 725 mmHg 6%
    16:00 +39°C° 0 mm 1 mps 725 mmHg 6%
    17:00 +37°C° 0 mm 1 mps 725 mmHg 7%
    18:00 +33°C° 0 mm 0 mps 725 mmHg 7%
    19:00 +34°C° 0 mm 1 mps 725 mmHg 7%
    20:00 +33°C° 0 mm 1 mps 726 mmHg 7%
    21:00 +33°C° 0 mm 1 mps 726 mmHg 8%
    22:00 +32°C° 0 mm 1 mps 726 mmHg 8%
    23:00 +31°C° 0 mm 1 mps 726 mmHg 9%
    Show more